Back to catalog

DELTA 1 R/B

+CAMEO

AliveSSO
NORAD 11081·ROCKET BODY·🇺🇸 United States

Launched Oct 24, 1978 from Vandenberg Space Force Base

Loading…

Next Passes (next 24 hours)

TLE

FreshSource: Space-Track

Epoch: Sep 14, 2026, 05:20 UTC

1 11081U 78098B   26257.22237503  .00000013  00000-0  51063-4 0  9992
2 11081  99.4203 192.8546 0027990 281.5295  78.2718 13.86122656260140

Track DELTA 1 R/B in real time with AllMySat

Download on the App Store